Find Starlink 11427

NORAD ID: 62063 Int'l Des: 2024-217 Owner: SPXS Country: US Constellation: starlink operational
LEOCIRCULAR

当前视图

正在加载3D地球...

About Starlink 11427

Starlink 11427 (NORAD 62063) is a starlink constellation satellite (v2 mini d2c) launched Nov 24, 2024 by SPXS of US. It operates in LEO, CIRCULAR orbit with a mass of 960.00 kg.

关于 Starlink 11427

正在加载描述...

即将过境

Passes for default location (London). Set your location on the main map for personalized predictions.

高度历史

Loading altitude history...

两行轨道根数

1 62063U 24217G 26168.73132613 .00143530 00000-0 11687-2 0 9993
2 62063 53.1570 298.2763 0001686 39.4969 320.6172 15.69719859 90884
Epoch: Jun 17, 2026 • Age: 17 hours

当前状态

高度 364.0 km
速度 7.69 km/s
星下点 -19.32°S, 140.81°W
发射日期 Nov 24, 2024
运行时间 1.5 years
类型 internet

技术详情

分类 Payload
质量 960.00 kg
干质量 910.00 kg
总质量 960.00 kg
长度 0.30 m
直径 4.10 m
跨度 29.00 m
形状 Box + pan
制造商 SPXS
平台类型 Starlink V2MD
阶段状态 In Orbit
所有者/国家 SPXS/US

Most Searched